DFATO LSZC-EDDF

Flight info

Callsign DFATO
Flight time 1h 13m
Altitude 20000
Route WIL T125 ZUE/N0246F070 T125 ROMIR/N0277F200 N851 VEDOK/N0279F180 N851 TEDGO T164 KOVAN T163 SPESA
Aircraft PC12/L-SDFGRWY/S

Departure

Time 2026-05-07 16:25
Airport Buochs Airport (LSZC)

Arrival

Time 2026-05-07 17:39
Airport Frankfurt Main Airport (EDDF)
Time Latitude Longitude Altitude Speed Heading
2026-05-07 16:10 46.97544 8.38207 1472 ft 0 kts 199°
2026-05-07 16:13 46.97533 8.38206 1472 ft 5 kts 164°
2026-05-07 16:13 46.97524 8.38264 1472 ft 7 kts 58°
2026-05-07 16:13 46.97531 8.38371 1470 ft 15 kts 101°
2026-05-07 16:14 46.97510 8.38545 1468 ft 15 kts 100°
2026-05-07 16:14 46.97502 8.38603 1468 ft 0 kts 101°
2026-05-07 16:19 46.97501 8.38611 1462 ft 4 kts 101°
2026-05-07 16:19 46.97492 8.38690 1467 ft 11 kts 99°
2026-05-07 16:19 46.97476 8.38817 1465 ft 14 kts 100°
2026-05-07 16:19 46.97457 8.38970 1460 ft 16 kts 100°
2026-05-07 16:20 46.97435 8.39143 1462 ft 18 kts 99°
2026-05-07 16:20 46.97425 8.39232 1461 ft 5 kts 101°
2026-05-07 16:20 46.97423 8.39300 1460 ft 8 kts 54°
2026-05-07 16:20 46.97475 8.39365 1458 ft 11 kts 38°
2026-05-07 16:21 46.97543 8.39447 1457 ft 14 kts 37°
2026-05-07 16:21 46.97622 8.39542 1455 ft 16 kts 39°
2026-05-07 16:21 46.97710 8.39646 1453 ft 17 kts 39°
2026-05-07 16:21 46.97760 8.39736 1451 ft 11 kts 92°
2026-05-07 16:22 46.97748 8.39858 1450 ft 13 kts 97°
2026-05-07 16:22 46.97736 8.39998 1448 ft 14 kts 97°
2026-05-07 16:22 46.97722 8.40149 1446 ft 16 kts 97°
2026-05-07 16:22 46.97728 8.40307 1444 ft 16 kts 64°
2026-05-07 16:23 46.97717 8.40355 1444 ft 0 kts 311°
2026-05-07 16:23 46.97740 8.40351 1444 ft 8 kts 46°
2026-05-07 16:23 46.97783 8.40481 1441 ft 20 kts 65°
2026-05-07 16:23 46.97843 8.40661 1438 ft 17 kts 63°
2026-05-07 16:24 46.97861 8.40812 1435 ft 14 kts 128°
2026-05-07 16:24 46.97807 8.40820 1435 ft 4 kts 244°
2026-05-07 16:24 46.97804 8.40811 1436 ft 6 kts 244°
2026-05-07 16:24 46.97707 8.40518 1441 ft 58 kts 244°
2026-05-07 16:25 46.97475 8.39807 1486 ft 91 kts 245°
2026-05-07 16:25 46.97201 8.38969 1798 ft 94 kts 246°
2026-05-07 16:25 46.96890 8.38084 2159 ft 101 kts 243°
2026-05-07 16:25 46.96568 8.37158 2553 ft 103 kts 249°
2026-05-07 16:26 46.96273 8.36153 2901 ft 116 kts 250°
2026-05-07 16:26 46.95962 8.35009 3376 ft 124 kts 250°
2026-05-07 16:26 46.95633 8.33801 3924 ft 131 kts 251°
2026-05-07 16:26 46.95299 8.32538 4511 ft 137 kts 250°
2026-05-07 16:27 46.94926 8.31207 5028 ft 146 kts 250°
2026-05-07 16:27 46.94493 8.29805 5574 ft 154 kts 248°
2026-05-07 16:27 46.94039 8.28348 6145 ft 160 kts 247°
2026-05-07 16:27 46.93577 8.26848 6708 ft 162 kts 248°
2026-05-07 16:28 46.93124 8.25337 7307 ft 162 kts 250°
2026-05-07 16:28 46.92686 8.23819 7886 ft 163 kts 245°
2026-05-07 16:28 46.92197 8.22301 8428 ft 167 kts 246°
2026-05-07 16:28 46.91714 8.20792 9089 ft 163 kts 247°
2026-05-07 16:29 46.91281 8.19253 9716 ft 164 kts 249°
2026-05-07 16:29 46.90815 8.17704 10267 ft 167 kts 245°
2026-05-07 16:29 46.90264 8.16169 10747 ft 174 kts 242°
2026-05-07 16:29 46.89715 8.14567 11232 ft 178 kts 245°
2026-05-07 16:30 46.89199 8.12924 11725 ft 182 kts 246°
2026-05-07 16:30 46.88675 8.11227 12224 ft 184 kts 245°
2026-05-07 16:30 46.88178 8.09504 12715 ft 184 kts 254°
2026-05-07 16:30 46.88227 8.07641 13256 ft 188 kts 286°
2026-05-07 16:31 46.88984 8.06073 13801 ft 196 kts 319°
2026-05-07 16:31 46.90227 8.05203 14318 ft 199 kts 336°
2026-05-07 16:31 46.91544 8.04528 14802 ft 201 kts 337°
2026-05-07 16:31 46.92866 8.03847 15287 ft 202 kts 336°
2026-05-07 16:32 46.94187 8.03150 15793 ft 202 kts 336°
2026-05-07 16:32 46.95504 8.02450 16301 ft 202 kts 336°
2026-05-07 16:32 46.96826 8.01750 16806 ft 201 kts 336°
2026-05-07 16:32 46.98138 8.01055 17340 ft 200 kts 336°
2026-05-07 16:33 46.99442 8.00364 17874 ft 199 kts 336°
2026-05-07 16:33 47.00799 7.99640 18011 ft 218 kts 336°
2026-05-07 16:33 47.02288 7.98850 18019 ft 236 kts 336°
2026-05-07 16:33 47.03880 7.98010 18026 ft 249 kts 337°
2026-05-07 16:34 47.05542 7.97132 18025 ft 259 kts 337°
2026-05-07 16:34 47.07256 7.96223 18025 ft 265 kts 337°
2026-05-07 16:34 47.09009 7.95291 18025 ft 269 kts 337°
2026-05-07 16:34 47.10777 7.94350 18025 ft 272 kts 337°
2026-05-07 16:35 47.12540 7.93411 18020 ft 274 kts 337°
2026-05-07 16:35 47.14333 7.92456 18011 ft 274 kts 337°
2026-05-07 16:35 47.16129 7.91506 18009 ft 275 kts 338°
2026-05-07 16:35 47.18030 7.91134 17998 ft 280 kts
2026-05-07 16:36 47.19924 7.91840 18000 ft 283 kts 19°
2026-05-07 16:36 47.21743 7.92963 18004 ft 284 kts 21°
2026-05-07 16:36 47.23558 7.94129 18003 ft 285 kts 21°
2026-05-07 16:36 47.25381 7.95272 18005 ft 285 kts 20°
2026-05-07 16:37 47.27211 7.96401 18000 ft 285 kts 20°
2026-05-07 16:37 47.29039 7.97534 18008 ft 285 kts 21°
2026-05-07 16:37 47.30866 7.98676 18007 ft 285 kts 21°
2026-05-07 16:37 47.32698 7.99821 18008 ft 285 kts 21°
2026-05-07 16:38 47.34521 8.00959 18009 ft 285 kts 21°
2026-05-07 16:38 47.36311 8.02221 18001 ft 285 kts 31°
2026-05-07 16:38 47.37715 8.04237 18000 ft 287 kts 53°
2026-05-07 16:38 47.38840 8.06671 18005 ft 287 kts 56°
2026-05-07 16:39 47.39936 8.09151 18005 ft 288 kts 56°
2026-05-07 16:39 47.41043 8.11619 18008 ft 288 kts 55°
2026-05-07 16:39 47.42161 8.14079 18009 ft 288 kts 55°
2026-05-07 16:39 47.43275 8.16533 18009 ft 288 kts 55°
2026-05-07 16:40 47.44389 8.19007 18010 ft 288 kts 56°
2026-05-07 16:40 47.45497 8.21469 18005 ft 288 kts 55°
2026-05-07 16:40 47.46611 8.23941 18007 ft 289 kts 56°
2026-05-07 16:40 47.47725 8.26416 18006 ft 289 kts 56°
2026-05-07 16:41 47.48836 8.28887 18005 ft 289 kts 56°
2026-05-07 16:41 47.49950 8.31367 18004 ft 289 kts 56°
2026-05-07 16:41 47.51061 8.33844 18010 ft 289 kts 56°
2026-05-07 16:41 47.52120 8.36205 18014 ft 290 kts 56°
2026-05-07 16:42 47.53218 8.38657 18009 ft 289 kts 56°
2026-05-07 16:42 47.54327 8.41137 18010 ft 288 kts 56°
2026-05-07 16:42 47.55435 8.43612 18012 ft 288 kts 56°
2026-05-07 16:42 47.56542 8.46089 18023 ft 288 kts 56°
2026-05-07 16:43 47.57648 8.48566 18018 ft 288 kts 56°
2026-05-07 16:43 47.58750 8.51039 18022 ft 287 kts 56°
2026-05-07 16:43 47.59590 8.53700 18014 ft 287 kts 76°
2026-05-07 16:43 47.59766 8.56626 18014 ft 285 kts 91°
2026-05-07 16:44 47.59705 8.59568 18015 ft 286 kts 93°
2026-05-07 16:44 47.59625 8.62509 18016 ft 286 kts 93°
2026-05-07 16:44 47.59562 8.65461 18014 ft 287 kts 92°
2026-05-07 16:44 47.59507 8.68416 18014 ft 287 kts 92°
2026-05-07 16:45 47.59447 8.71372 18014 ft 287 kts 92°
2026-05-07 16:45 47.59383 8.74325 18014 ft 287 kts 93°
2026-05-07 16:45 47.59318 8.77279 18015 ft 287 kts 93°
2026-05-07 16:45 47.59290 8.80236 18012 ft 287 kts 86°
2026-05-07 16:46 47.59808 8.83075 18013 ft 287 kts 64°
2026-05-07 16:46 47.60799 8.85586 18015 ft 286 kts 57°
2026-05-07 16:46 47.61861 8.88081 18015 ft 286 kts 57°
2026-05-07 16:46 47.62919 8.90586 18020 ft 287 kts 57°
2026-05-07 16:47 47.63966 8.93105 18020 ft 287 kts 57°
2026-05-07 16:47 47.65014 8.95630 18017 ft 287 kts 57°
2026-05-07 16:47 47.66067 8.98155 18020 ft 287 kts 57°
2026-05-07 16:47 47.67117 9.00676 18027 ft 287 kts 57°
2026-05-07 16:48 47.68164 9.03194 18027 ft 286 kts 57°
2026-05-07 16:48 47.69210 9.05712 18027 ft 286 kts 57°
2026-05-07 16:48 47.70283 9.08194 18025 ft 284 kts 51°
2026-05-07 16:48 47.71752 9.10112 18023 ft 281 kts 29°
2026-05-07 16:49 47.73569 9.11127 18024 ft 278 kts
2026-05-07 16:49 47.75474 9.11484 18027 ft 276 kts
2026-05-07 16:49 47.77386 9.11783 18027 ft 276 kts
2026-05-07 16:49 47.79301 9.12092 18028 ft 277 kts
2026-05-07 16:50 47.81225 9.12407 18029 ft 277 kts
2026-05-07 16:50 47.83144 9.12711 18028 ft 278 kts
2026-05-07 16:50 47.85075 9.13022 18025 ft 278 kts
2026-05-07 16:50 47.86994 9.13348 18024 ft 278 kts
2026-05-07 16:51 47.88911 9.13675 18023 ft 278 kts
2026-05-07 16:51 47.90810 9.13991 18023 ft 277 kts
2026-05-07 16:51 47.92729 9.14304 18023 ft 277 kts
2026-05-07 16:51 47.94649 9.14621 18023 ft 277 kts
2026-05-07 16:52 47.96559 9.14939 18022 ft 276 kts
2026-05-07 16:52 47.98469 9.15256 18023 ft 276 kts
2026-05-07 16:52 48.00381 9.15573 18022 ft 276 kts
2026-05-07 16:52 48.02291 9.15890 18023 ft 276 kts
2026-05-07 16:53 48.04132 9.16196 18022 ft 276 kts
2026-05-07 16:53 48.06044 9.16514 18024 ft 276 kts
2026-05-07 16:53 48.07955 9.16834 18022 ft 276 kts
2026-05-07 16:53 48.09863 9.17152 18022 ft 276 kts
2026-05-07 16:54 48.11753 9.17468 18025 ft 276 kts
2026-05-07 16:54 48.13669 9.17788 18023 ft 276 kts
2026-05-07 16:54 48.15578 9.18107 18023 ft 276 kts
2026-05-07 16:54 48.17487 9.18426 18023 ft 276 kts
2026-05-07 16:55 48.19397 9.18746 18023 ft 277 kts
2026-05-07 16:55 48.20669 9.18959 18024 ft 277 kts
2026-05-07 16:55 48.22583 9.19280 18025 ft 277 kts
2026-05-07 16:55 48.24502 9.19602 18026 ft 277 kts
2026-05-07 16:56 48.26404 9.19921 18023 ft 277 kts
2026-05-07 16:56 48.28321 9.20244 18029 ft 277 kts
2026-05-07 16:56 48.32155 9.20888 18027 ft 278 kts
2026-05-07 16:57 48.34076 9.21212 18028 ft 277 kts
2026-05-07 16:57 48.35992 9.21535 18028 ft 277 kts
2026-05-07 16:57 48.37886 9.21854 18027 ft 277 kts
2026-05-07 16:57 48.39803 9.22178 18027 ft 277 kts
2026-05-07 16:58 48.41724 9.22502 18027 ft 278 kts
2026-05-07 16:58 48.43650 9.22828 18028 ft 278 kts
2026-05-07 16:58 48.45569 9.23153 18027 ft 277 kts
2026-05-07 16:58 48.47489 9.23477 18028 ft 278 kts
2026-05-07 16:59 48.49413 9.23803 18029 ft 278 kts
2026-05-07 16:59 48.51341 9.24130 18027 ft 279 kts
2026-05-07 16:59 48.53265 9.24457 18051 ft 278 kts
2026-05-07 16:59 48.55197 9.24785 18053 ft 279 kts
2026-05-07 17:00 48.57123 9.25112 18051 ft 279 kts
2026-05-07 17:00 48.59053 9.25441 18053 ft 279 kts
2026-05-07 17:00 48.60980 9.25732 18052 ft 276 kts 358°
2026-05-07 17:00 48.62836 9.25250 18052 ft 269 kts 336°
2026-05-07 17:01 48.64549 9.24151 18058 ft 267 kts 332°
2026-05-07 17:01 48.66229 9.23022 18059 ft 268 kts 332°
2026-05-07 17:01 48.67940 9.21884 18058 ft 268 kts 333°
2026-05-07 17:01 48.69651 9.20759 18058 ft 268 kts 333°
2026-05-07 17:02 48.71363 9.19630 18061 ft 268 kts 333°
2026-05-07 17:02 48.73070 9.18500 18056 ft 268 kts 332°
2026-05-07 17:02 48.74782 9.17365 18058 ft 268 kts 332°
2026-05-07 17:02 48.76497 9.16229 18059 ft 269 kts 332°
2026-05-07 17:03 48.78210 9.15093 18056 ft 269 kts 332°
2026-05-07 17:03 48.79923 9.13956 18055 ft 268 kts 332°
2026-05-07 17:03 48.81636 9.12818 18054 ft 268 kts 332°
2026-05-07 17:03 48.83345 9.11682 18053 ft 268 kts 332°
2026-05-07 17:04 48.85058 9.10542 18048 ft 269 kts 332°
2026-05-07 17:04 48.86746 9.09418 18047 ft 269 kts 332°
2026-05-07 17:04 48.88540 9.08593 18037 ft 274 kts 349°
2026-05-07 17:04 48.90457 9.08694 18037 ft 277 kts
2026-05-07 17:05 48.92377 9.08993 17836 ft 275 kts
2026-05-07 17:05 48.94265 9.09298 17430 ft 270 kts
2026-05-07 17:05 48.96123 9.09563 17034 ft 266 kts
2026-05-07 17:05 48.97960 9.09814 16640 ft 263 kts
2026-05-07 17:06 48.99781 9.10071 16254 ft 262 kts
2026-05-07 17:06 49.01592 9.10332 15870 ft 260 kts
2026-05-07 17:06 49.03358 9.10583 15498 ft 259 kts
2026-05-07 17:06 49.05154 9.10835 15117 ft 258 kts
2026-05-07 17:07 49.06940 9.11088 14755 ft 257 kts
2026-05-07 17:07 49.08713 9.11340 14391 ft 255 kts
2026-05-07 17:07 49.10477 9.11590 14031 ft 254 kts
2026-05-07 17:07 49.12211 9.11836 13657 ft 252 kts
2026-05-07 17:08 49.13952 9.12084 13259 ft 251 kts
2026-05-07 17:08 49.15687 9.12330 12861 ft 250 kts
2026-05-07 17:08 49.17417 9.12576 12471 ft 249 kts
2026-05-07 17:08 49.19143 9.12821 12089 ft 248 kts
2026-05-07 17:09 49.20858 9.13066 11707 ft 248 kts
2026-05-07 17:09 49.22572 9.13310 11330 ft 247 kts
2026-05-07 17:09 49.24277 9.13554 10957 ft 246 kts
2026-05-07 17:09 49.25989 9.13798 10590 ft 246 kts
2026-05-07 17:10 49.27693 9.14042 10227 ft 245 kts
2026-05-07 17:10 49.29377 9.14283 10044 ft 238 kts
2026-05-07 17:10 49.31006 9.14515 10046 ft 236 kts
2026-05-07 17:10 49.32657 9.14746 10047 ft 239 kts
2026-05-07 17:11 49.34317 9.14983 10047 ft 240 kts
2026-05-07 17:11 49.35987 9.15224 10048 ft 241 kts
2026-05-07 17:11 49.37641 9.15462 10045 ft 242 kts
2026-05-07 17:11 49.39320 9.15703 10045 ft 242 kts
2026-05-07 17:12 49.40998 9.15945 10048 ft 242 kts
2026-05-07 17:12 49.42673 9.16186 10047 ft 242 kts
2026-05-07 17:12 49.44353 9.16427 10051 ft 242 kts
2026-05-07 17:12 49.46027 9.16668 10050 ft 242 kts
2026-05-07 17:13 49.47701 9.16909 10047 ft 241 kts
2026-05-07 17:13 49.49372 9.17150 10047 ft 241 kts
2026-05-07 17:13 49.51044 9.17391 10048 ft 241 kts
2026-05-07 17:13 49.52714 9.17632 10050 ft 241 kts
2026-05-07 17:14 49.54384 9.17874 10047 ft 241 kts
2026-05-07 17:14 49.56049 9.18115 10047 ft 238 kts
2026-05-07 17:14 49.57651 9.18351 10044 ft 224 kts
2026-05-07 17:14 49.59146 9.18570 10039 ft 213 kts
2026-05-07 17:15 49.60590 9.18777 10042 ft 204 kts
2026-05-07 17:15 49.61977 9.18977 10040 ft 196 kts
2026-05-07 17:15 49.63330 9.19174 9698 ft 192 kts
2026-05-07 17:15 49.64636 9.19367 9295 ft 186 kts
2026-05-07 17:16 49.65880 9.19738 8889 ft 182 kts 22°
2026-05-07 17:16 49.66862 9.20944 8494 ft 180 kts 43°
2026-05-07 17:16 49.67721 9.22343 8113 ft 179 kts 44°
2026-05-07 17:16 49.68573 9.23732 7733 ft 178 kts 43°
2026-05-07 17:17 49.69430 9.25115 7355 ft 177 kts 43°
2026-05-07 17:17 49.70273 9.26474 7060 ft 172 kts 43°
2026-05-07 17:17 49.71049 9.27732 7047 ft 152 kts 43°
2026-05-07 17:17 49.71747 9.28859 7041 ft 141 kts 42°
2026-05-07 17:18 49.72415 9.29933 7048 ft 143 kts 41°
2026-05-07 17:18 49.73295 9.30712 7067 ft 153 kts
2026-05-07 17:18 49.74393 9.31043 7061 ft 167 kts
2026-05-07 17:18 49.75572 9.31408 7060 ft 178 kts
2026-05-07 17:19 49.76813 9.31806 7051 ft 186 kts
2026-05-07 17:19 49.78124 9.32230 6691 ft 195 kts
2026-05-07 17:19 49.79474 9.32667 6314 ft 200 kts
2026-05-07 17:19 49.80850 9.33109 5929 ft 204 kts
2026-05-07 17:20 49.82246 9.33557 5550 ft 206 kts
2026-05-07 17:20 49.83653 9.34008 5169 ft 206 kts
2026-05-07 17:20 49.85027 9.34013 5063 ft 189 kts 344°
2026-05-07 17:20 49.86122 9.33178 5061 ft 165 kts 320°
2026-05-07 17:21 49.86815 9.31919 5062 ft 146 kts 299°
2026-05-07 17:21 49.87168 9.30525 5021 ft 136 kts 288°
2026-05-07 17:21 49.87443 9.29143 4903 ft 133 kts 288°
2026-05-07 17:21 49.87694 9.27727 4644 ft 139 kts 285°
2026-05-07 17:22 49.87912 9.26242 4350 ft 143 kts 284°
2026-05-07 17:22 49.88132 9.24714 4018 ft 147 kts 284°
2026-05-07 17:22 49.88348 9.23145 3712 ft 148 kts 283°
2026-05-07 17:22 49.88534 9.21593 3498 ft 147 kts 282°
2026-05-07 17:23 49.88708 9.20049 3346 ft 143 kts 282°
2026-05-07 17:23 49.88871 9.18553 3191 ft 139 kts 281°
2026-05-07 17:23 49.89015 9.17067 2997 ft 140 kts 280°
2026-05-07 17:23 49.89150 9.15577 2779 ft 140 kts 281°
2026-05-07 17:24 49.89304 9.14092 2619 ft 137 kts 281°
2026-05-07 17:24 49.89462 9.12610 2567 ft 142 kts 283°
2026-05-07 17:24 49.89676 9.11097 2657 ft 141 kts 284°
2026-05-07 17:24 49.89859 9.09654 2800 ft 136 kts 284°
2026-05-07 17:25 49.90095 9.08189 2657 ft 146 kts 287°
2026-05-07 17:25 49.90352 9.06623 2462 ft 154 kts 287°
2026-05-07 17:25 49.90624 9.04991 2329 ft 155 kts 287°
2026-05-07 17:25 49.90896 9.03399 2287 ft 151 kts 287°
2026-05-07 17:26 49.91163 9.01831 2247 ft 148 kts 288°
2026-05-07 17:26 49.91413 9.00294 2235 ft 147 kts 286°
2026-05-07 17:26 49.91657 8.98769 2237 ft 146 kts 286°
2026-05-07 17:26 49.91895 8.97266 2347 ft 140 kts 286°
2026-05-07 17:27 49.92112 8.95754 2480 ft 148 kts 284°
2026-05-07 17:27 49.92306 8.94182 2553 ft 149 kts 282°
2026-05-07 17:27 49.92483 8.92572 2466 ft 154 kts 282°
2026-05-07 17:27 49.92652 8.90885 2310 ft 162 kts 281°
2026-05-07 17:28 49.92809 8.89182 2172 ft 156 kts 280°
2026-05-07 17:28 49.92941 8.87546 2103 ft 151 kts 279°
2026-05-07 17:28 49.93055 8.85924 1966 ft 151 kts 278°
2026-05-07 17:28 49.93155 8.84310 1897 ft 149 kts 278°
2026-05-07 17:29 49.93250 8.82722 1859 ft 147 kts 277°
2026-05-07 17:29 49.93347 8.81129 1780 ft 148 kts 278°
2026-05-07 17:29 49.93454 8.79552 1721 ft 146 kts 278°
2026-05-07 17:29 49.93572 8.77988 1672 ft 145 kts 279°
2026-05-07 17:30 49.93692 8.76426 1554 ft 149 kts 279°
2026-05-07 17:30 49.93795 8.74844 1492 ft 146 kts 277°
2026-05-07 17:30 49.93861 8.73265 1408 ft 147 kts 275°
2026-05-07 17:30 49.93905 8.71667 1348 ft 147 kts 274°
2026-05-07 17:31 49.93949 8.70090 1334 ft 145 kts 274°
2026-05-07 17:31 49.93986 8.68507 1320 ft 151 kts 273°
2026-05-07 17:31 49.94008 8.66828 1316 ft 159 kts 274°
2026-05-07 17:31 49.94073 8.65084 1361 ft 163 kts 279°
2026-05-07 17:32 49.94369 8.63375 1393 ft 165 kts 297°
2026-05-07 17:32 49.95101 8.62012 1416 ft 166 kts 325°
2026-05-07 17:32 49.96121 8.61194 1465 ft 163 kts 340°
2026-05-07 17:32 49.96795 8.60813 1398 ft 150 kts 343°
2026-05-07 17:33 49.98092 8.60252 1230 ft 138 kts 346°
2026-05-07 17:33 49.99001 8.59932 1149 ft 131 kts 352°
2026-05-07 17:33 49.99905 8.59789 1036 ft 130 kts 351°
2026-05-07 17:33 50.00773 8.59523 983 ft 119 kts 347°
2026-05-07 17:34 50.01524 8.59329 928 ft 103 kts
2026-05-07 17:34 50.02171 8.59692 856 ft 99 kts 34°
2026-05-07 17:34 50.02608 8.60464 844 ft 96 kts 78°
2026-05-07 17:34 50.02389 8.61362 851 ft 94 kts 150°
2026-05-07 17:35 50.01829 8.61226 903 ft 85 kts 233°
2026-05-07 17:35 50.01898 8.60364 981 ft 91 kts 319°
2026-05-07 17:35 50.02493 8.60329 1025 ft 97 kts 38°
2026-05-07 17:35 50.02704 8.61270 1077 ft 97 kts 107°
2026-05-07 17:36 50.02206 8.61865 1149 ft 97 kts 178°
2026-05-07 17:36 50.01670 8.61310 1193 ft 99 kts 252°
2026-05-07 17:36 50.01869 8.60370 1233 ft 98 kts 330°
2026-05-07 17:36 50.02495 8.60477 1267 ft 98 kts 46°
2026-05-07 17:37 50.02480 8.61454 1269 ft 103 kts 134°
2026-05-07 17:37 50.01836 8.61390 1312 ft 103 kts 231°
2026-05-07 17:37 50.01844 8.60406 1316 ft 101 kts 320°
2026-05-07 17:37 50.02475 8.60274 1176 ft 93 kts
2026-05-07 17:38 50.03095 8.60496 1021 ft 93 kts 12°
2026-05-07 17:38 50.03707 8.60521 871 ft 86 kts 325°
2026-05-07 17:38 50.04064 8.59769 743 ft 89 kts 282°
2026-05-07 17:38 50.04051 8.58850 509 ft 85 kts 247°
2026-05-07 17:39 50.03916 8.58283 390 ft 81 kts 244°
2026-05-07 17:39 50.03740 8.57580 355 ft 44 kts 249°
2026-05-07 17:39 50.03655 8.57239 352 ft 28 kts 242°
2026-05-07 17:39 50.03564 8.57240 351 ft 14 kts 123°
2026-05-07 17:40 50.03535 8.57273 355 ft 0 kts 172°
2026-05-07 17:41 50.03525 8.57273 349 ft 5 kts 182°
2026-05-07 17:41 50.03475 8.57234 349 ft 11 kts 228°
2026-05-07 17:41 50.03401 8.57207 354 ft 12 kts 186°
2026-05-07 17:41 50.03349 8.57101 349 ft 14 kts 249°
2026-05-07 17:42 50.03318 8.56973 353 ft 12 kts 249°
2026-05-07 17:42 50.03308 8.56931 350 ft 0 kts 249°
2026-05-07 17:43 50.03308 8.56927 350 ft 2 kts 249°
2026-05-07 17:44 50.03290 8.56854 352 ft 12 kts 250°
2026-05-07 17:44 50.03251 8.56687 346 ft 20 kts 249°
2026-05-07 17:44 50.03198 8.56467 348 ft 23 kts 249°
2026-05-07 17:44 50.03144 8.56239 349 ft 23 kts 249°
2026-05-07 17:45 50.03088 8.56004 338 ft 24 kts 249°
2026-05-07 17:45 50.03029 8.55757 336 ft 21 kts 249°
2026-05-07 17:45 50.02973 8.55522 337 ft 25 kts 249°
2026-05-07 17:45 50.02925 8.55322 338 ft 22 kts 249°
2026-05-07 17:46 50.02867 8.55079 338 ft 26 kts 249°
2026-05-07 17:46 50.02802 8.54811 338 ft 25 kts 248°
2026-05-07 17:46 50.02744 8.54572 337 ft 24 kts 250°
2026-05-07 17:46 50.02689 8.54334 336 ft 23 kts 252°
2026-05-07 17:47 50.02641 8.54091 331 ft 21 kts 250°
2026-05-07 17:47 50.02583 8.53851 329 ft 26 kts 249°
2026-05-07 17:47 50.02524 8.53603 332 ft 25 kts 249°
2026-05-07 17:47 50.02471 8.53383 333 ft 22 kts 250°
2026-05-07 17:48 50.02413 8.53132 332 ft 27 kts 249°
2026-05-07 17:48 50.02356 8.52903 331 ft 12 kts 249°
2026-05-07 17:48 50.02284 8.52830 332 ft 16 kts 178°
2026-05-07 17:48 50.02166 8.52836 332 ft 14 kts 158°
2026-05-07 17:49 50.02152 8.52998 331 ft 18 kts 86°
2026-05-07 17:49 50.02208 8.53130 329 ft 16 kts 65°
2026-05-07 17:49 50.02245 8.53259 329 ft 11 kts 19°